| time (UTC) | temp F | wind direction | speed knots | gust knots | rain 1hr in | rain 24hr in | rain mn in | humidity % | barometer mb |
| 20260506072318 | 45 | 287 | 2.6 | 2.6 | 0.01 | 0.45 | 0.04 | 92 | 1007.1 |
| 20260506070818 | 45 | 289 | 1.7 | 2.6 | 0.00 | 0.44 | 0.03 | 93 | 1007.5 |
| 20260506062319 | 45 | 285 | 1.7 | 2.6 | 0.01 | 0.44 | 0.03 | 94 | 1007.1 |
| 20260506060817 | 45 | 302 | 1.7 | 4.3 | 0.01 | 0.44 | 0.03 | 94 | 1007.1 |
| 20260506050817 | 47 | 300 | 1.7 | 4.3 | 0.02 | 0.43 | 0.02 | 98 | 1007.5 |
| 20260506043816 | 47 | 294 | 1.7 | 2.6 | 0.00 | 0.42 | 0.01 | 99 | 1007.5 |
| 20260506042320 | 47 | 284 | 1.7 | 1.7 | 0.00 | 0.42 | 0.01 | 99 | 1007.5 |
| 20260506040816 | 47 | 288 | 1.7 | 2.6 | 0.00 | 0.41 | 0.00 | 99 | 1007.5 |
| 20260506035318 | 48 | 284 | 1.7 | 2.6 | 0.08 | 0.41 | 0.41 | 99 | 1007.5 |
| 20260506033817 | 48 | 282 | 0.9 | 1.7 | 0.07 | 0.39 | 0.39 | 99 | 1007.5 |
| 20260506032318 | 48 | 275 | 1.7 | 1.7 | 0.05 | 0.37 | 0.37 | 99 | 1007.5 |
| 20260506030817 | 48 | 255 | 4.3 | 5.2 | 0.04 | 0.35 | 0.35 | 99 | 1007.8 |
| 20260506025318 | 48 | 253 | 5.2 | 6.1 | 0.02 | 0.33 | 0.33 | 99 | 1007.8 |
| 20260506023817 | 48 | 256 | 5.2 | 6.1 | 0.01 | 0.32 | 0.32 | 99 | 1007.8 |
| 20260506022318 | 48 | 263 | 2.6 | 4.3 | 0.01 | 0.32 | 0.32 | 99 | 1007.5 |
| 20260506020818 | 48 | 238 | 2.6 | 5.2 | 0.00 | 0.31 | 0.31 | 99 | 1007.1 |
| 20260506015319 | 48 | 263 | 4.3 | 5.2 | 0.01 | 0.31 | 0.31 | 99 | 1007.1 |
| 20260506013817 | 48 | 258 | 2.6 | 5.2 | 0.02 | 0.32 | 0.31 | 99 | 1006.8 |
| 20260506012318 | 48 | 265 | 2.6 | 5.2 | 0.02 | 0.35 | 0.31 | 99 | 1006.8 |
| 20260506010817 | 48 | 250 | 4.3 | 6.1 | 0.02 | 0.39 | 0.31 | 99 | 1007.1 |
| 20260506005319 | 48 | 247 | 4.3 | 7.0 | 0.01 | 0.43 | 0.30 | 99 | 1007.1 |
| 20260506003817 | 48 | 233 | 5.2 | 7.0 | 0.02 | 0.42 | 0.29 | 99 | 1006.8 |
| 20260506002437 | 48 | 242 | 2.6 | 5.2 | 0.03 | 0.42 | 0.29 | 99 | 1006.8 |
| 20260506000941 | 48 | 244 | 2.6 | 4.3 | 0.04 | 0.42 | 0.29 | 99 | 1006.4 |
| 20260505235318 | 48 | 242 | 5.2 | 6.1 | 0.06 | 0.42 | 0.29 | 99 | 1006.4 |
| 20260505233817 | 49 | 249 | 2.6 | 4.3 | 0.08 | 0.40 | 0.27 | 99 | 1006.8 |
| 20260505232320 | 49 | 229 | 4.3 | 5.2 | 0.09 | 0.39 | 0.26 | 99 | 1006.8 |
| 20260505230816 | 49 | 278 | 2.6 | 4.3 | 0.09 | 0.38 | 0.25 | 99 | 1006.4 |
| 20260505225319 | 49 | 279 | 1.7 | 2.6 | 0.09 | 0.36 | 0.23 | 99 | 1006.4 |
| 20260505223816 | 49 | 283 | 0.9 | 2.6 | 0.06 | 0.32 | 0.19 | 98 | 1006.1 |
| 20260505222317 | 49 | 283 | 0.9 | 4.3 | 0.05 | 0.30 | 0.17 | 98 | 1006.8 |
| 20260505220817 | 50 | 296 | 1.7 | 2.6 | 0.04 | 0.29 | 0.16 | 98 | 1006.8 |
| 20260505215317 | 50 | 296 | 1.7 | 2.6 | 0.04 | 0.27 | 0.14 | 96 | 1006.1 |
| 20260505213818 | 51 | 296 | 0.9 | 1.7 | 0.03 | 0.26 | 0.13 | 95 | 1006.4 |
| 20260505212317 | 51 | 306 | 0.0 | 1.7 | 0.03 | 0.25 | 0.12 | 95 | 1006.4 |
| 20260505210817 | 50 | 326 | 0.9 | 0.9 | 0.06 | 0.25 | 0.12 | 95 | 1006.8 |
| 20260505205317 | 50 | 326 | 1.7 | 1.7 | 0.07 | 0.23 | 0.10 | 94 | 1006.8 |
| 20260505203817 | 50 | 335 | 2.6 | 5.2 | 0.10 | 0.23 | 0.10 | 93 | 1006.8 |
| 20260505202318 | 51 | 330 | 2.6 | 5.2 | 0.09 | 0.22 | 0.09 | 93 | 1006.8 |
| 20260505200817 | 51 | 338 | 4.3 | 7.0 | 0.06 | 0.19 | 0.06 | 91 | 1006.7 |
| 20260505195317 | 52 | 338 | 6.1 | 8.7 | 0.03 | 0.16 | 0.03 | 92 | 1006.1 |
| 20260505193817 | 53 | 330 | 7.0 | 7.8 | 0.00 | 0.13 | 0.00 | 86 | 1006.4 |
| 20260505192316 | 54 | 332 | 7.8 | 10.4 | 0.00 | 0.13 | 0.00 | 81 | 1006.1 |
| 20260505190817 | 56 | 321 | 7.0 | 10.4 | 0.00 | 0.13 | 0.00 | 77 | 1005.8 |
| 20260505185318 | 58 | 314 | 2.6 | 4.3 | 0.00 | 0.13 | 0.00 | 78 | 1005.4 |
| 20260505183817 | 59 | 322 | 2.6 | 7.0 | 0.00 | 0.13 | 0.00 | 74 | 1005.8 |
| 20260505182317 | 59 | 340 | 4.3 | 7.8 | 0.00 | 0.13 | 0.00 | 77 | 1005.4 |
| 20260505180817 | 59 | 305 | 4.3 | 5.2 | 0.00 | 0.13 | 0.00 | 78 | 1005.1 |
| 20260505175319 | 59 | 312 | 2.6 | 4.3 | 0.00 | 0.13 | 0.00 | 77 | 1005.1 |
| 20260505173816 | 59 | 325 | 0.9 | 2.6 | 0.00 | 0.13 | 0.00 | 75 | 1005.1 |
| 20260505172317 | 59 | 341 | 1.7 | 2.6 | 0.00 | 0.13 | 0.00 | 74 | 1004.7 |
| 20260505170816 | 60 | 352 | 1.7 | 2.6 | 0.00 | 0.13 | 0.00 | 73 | 1005.1 |
| 20260505165317 | 58 | 113 | 0.9 | 1.7 | 0.00 | 0.13 | 0.00 | 79 | 1005.1 |
| 20260505163816 | 60 | 14 | 0.9 | 1.7 | 0.00 | 0.13 | 0.00 | 75 | 1005.1 |
| 20260505162319 | 60 | 341 | 4.3 | 7.0 | 0.00 | 0.13 | 0.00 | 77 | 1004.5 |
| 20260505160816 | 59 | 332 | 2.6 | 5.2 | 0.00 | 0.13 | 0.00 | 80 | 1004.7 |
| 20260505152317 | 62 | 292 | 5.2 | 10.4 | 0.00 | 0.13 | 0.00 | 78 | 1004.1 |
| 20260505150816 | 61 | 290 | 7.8 | 11.3 | 0.00 | 0.13 | 0.00 | 82 | 1003.7 |
| 20260505123817 | 60 | 290 | 7.0 | 12.2 | 0.00 | 0.13 | 0.00 | 86 | 1002.4 |
| 20260505122318 | 59 | 281 | 5.2 | 7.0 | 0.00 | 0.13 | 0.00 | 88 | 1002.4 |
| 20260505120816 | 57 | 276 | 7.0 | 11.3 | 0.00 | 0.13 | 0.00 | 90 | 1002.0 |
| 20260505115317 | 56 | 247 | 7.8 | 11.3 | 0.00 | 0.13 | 0.00 | 92 | 1002.0 |
| 20260505113816 | 56 | 263 | 6.1 | 10.4 | 0.00 | 0.13 | 0.00 | 92 | 1001.7 |
| 20260505112317 | 53 | 253 | 6.1 | 10.4 | 0.00 | 0.13 | 0.00 | 96 | 1001.4 |
| 20260505110817 | 54 | 265 | 6.1 | 11.3 | 0.00 | 0.13 | 0.00 | 96 | 1001.4 |
| 20260505100816 | 57 | 252 | 6.1 | 11.3 | 0.00 | 0.13 | 0.00 | 91 | 1000.0 |
| 20260505095318 | 55 | 238 | 7.0 | 13.0 | 0.00 | 0.13 | 0.00 | 92 | 1000.0 |
| 20260505093816 | 58 | 257 | 7.0 | 13.0 | 0.00 | 0.13 | 0.00 | 88 | 1000.0 |
| 20260505092318 | 56 | 277 | 8.7 | 11.3 | 0.00 | 0.13 | 0.00 | 90 | 1000.3 |
| 20260505090815 | 56 | 255 | 8.7 | 10.4 | 0.00 | 0.13 | 0.00 | 91 | 1000.0 |
| 20260505085317 | 54 | 259 | 10.4 | 10.4 | 0.00 | 0.13 | 0.00 | 92 | 1000.0 |
| 20260505083817 | 56 | 275 | 5.2 | 7.8 | 0.00 | 0.13 | 0.00 | 91 | 999.3 |
| 20260505082318 | 56 | 266 | 7.0 | 12.2 | 0.00 | 0.13 | 0.00 | 91 | 999.3 |
| 20260505080816 | 55 | 255 | 7.0 | 8.7 | 0.00 | 0.13 | 0.00 | 92 | 999.0 |